Location: Unspecified
(44.0704°N, 88.6889°W)
Time: 10:47:39
(UTC+02:00)

Vanguard 2 Rocket - Pass Details

Date: 10 August 2020
Orbit: 554 x 3326 km, 32.9° (Epoch: 22 September)

Event Time Altitude Azimuth Distance (km) Brightness Sun altitude
Rises 08:26:37 0° 270° (W) 5,766 10.9 -30.2°
Reaches altitude 10° 08:31:34 10° 255° (WSW) 5,200 10.5 -30.1°
Enters shadow 08:35:27 16° 241° (WSW) 4,977 10.3 -30.0°
